Tracking 29892 objects as of 21-Nov-2024
HD Live streaming from Space Station
objects crossing your sky now

STARLINK-1570

Track STARLINK-1570 now!
10-day predictions
STARLINK-1570 is classified as:


NORAD ID: 46059
Int'l Code: 2020-055AJ
Perigee: 553.5 km
Apogee: 555.3 km
Inclination: 53.1 °
Period: 95.6 minutes
Semi major axis: 6925 km
RCS: Unknown
Launch date: August 7, 2020
Source: United States (US)
Launch site: AIR FORCE EASTERN TEST RANGE (AFETR)
Your satellite tracking list
Your tracking list is empty




NASA's NSSDC Master Catalog

Two Line Element Set (TLE):
1 46059U 20055AJ  24324.67862334  .00002892  00000-0  21302-3 0  9992
2 46059  53.0532  89.0253 0001268  92.2789 267.8345 15.06386559237392
Source of the keplerian elements: AFSPC